| time (UTC) | temp F | wind direction | speed MPH | gust MPH | rain 1hr in | rain 24hr in | rain mn in | humidity % | barometer mb |
| 20260509084021 | 46 | 239 | 0.0 | 0.0 | 0.00 | 0.00 | 0.00 | 47 | 1013.3 |
| 20260509083519 | 46 | 243 | 0.0 | 0.0 | 0.00 | 0.00 | 0.00 | 48 | 1013.3 |
| 20260509083018 | 46 | 244 | 0.0 | 0.0 | 0.00 | 0.00 | 0.00 | 49 | 1013.3 |
| 20260509082518 | 47 | 244 | 0.0 | 0.0 | 0.00 | 0.00 | 0.00 | 48 | 1013.4 |
| 20260509082018 | 47 | 243 | 0.0 | 0.0 | 0.00 | 0.00 | 0.00 | 46 | 1013.4 |
| 20260509081521 | 46 | 244 | 0.0 | 0.0 | 0.00 | 0.00 | 0.00 | 51 | 1013.3 |
| 20260509081018 | 46 | 244 | 0.0 | 0.0 | 0.00 | 0.00 | 0.00 | 49 | 1013.3 |
| 20260509080518 | 46 | 244 | 0.0 | 0.0 | 0.00 | 0.00 | 0.00 | 49 | 1013.4 |
| 20260509080026 | 46 | 244 | 0.0 | 0.0 | 0.00 | 0.00 | 0.00 | 51 | 1013.4 |
| 20260509075525 | 46 | 244 | 0.0 | 0.0 | 0.00 | 0.00 | 0.00 | 50 | 1013.4 |
| 20260509075021 | 47 | 244 | 0.0 | 0.0 | 0.00 | 0.00 | 0.00 | 51 | 1013.3 |
| 20260509074519 | 47 | 244 | 0.0 | 0.0 | 0.00 | 0.00 | 0.00 | 50 | 1013.4 |
| 20260509074020 | 47 | 244 | 0.0 | 0.0 | 0.00 | 0.00 | 0.00 | 50 | 1013.2 |
| 20260509073518 | 48 | 244 | 0.0 | 0.0 | 0.00 | 0.00 | 0.00 | 49 | 1013.3 |
| 20260509073019 | 48 | 244 | 0.0 | 0.0 | 0.00 | 0.00 | 0.00 | 49 | 1013.3 |
| 20260509072519 | 47 | 244 | 0.0 | 0.0 | 0.00 | 0.00 | 0.00 | 48 | 1013.3 |
| 20260509072020 | 47 | 244 | 0.0 | 0.0 | 0.00 | 0.00 | 0.00 | 50 | 1013.4 |
| 20260509071519 | 48 | 244 | 0.0 | 0.0 | 0.00 | 0.00 | 0.00 | 49 | 1013.5 |
| 20260509071021 | 48 | 244 | 0.0 | 0.0 | 0.00 | 0.00 | 0.00 | 48 | 1013.5 |
| 20260509070520 | 49 | 244 | 0.0 | 0.0 | 0.00 | 0.00 | 0.00 | 46 | 1013.6 |
| 20260509070019 | 49 | 244 | 0.0 | 0.0 | 0.00 | 0.00 | 0.00 | 44 | 1013.5 |
| 20260509065518 | 48 | 244 | 0.0 | 0.0 | 0.00 | 0.00 | 0.00 | 46 | 1013.6 |
| 20260509065019 | 48 | 244 | 0.0 | 0.0 | 0.00 | 0.00 | 0.00 | 49 | 1013.6 |
| 20260509064519 | 49 | 244 | 0.0 | 0.0 | 0.00 | 0.00 | 0.00 | 45 | 1013.6 |
| 20260509064021 | 49 | 248 | 0.0 | 0.0 | 0.00 | 0.00 | 0.00 | 46 | 1013.6 |
| 20260509063522 | 48 | 248 | 0.0 | 0.0 | 0.00 | 0.00 | 0.00 | 47 | 1013.7 |
| 20260509063018 | 48 | 248 | 0.0 | 0.0 | 0.00 | 0.00 | 0.00 | 50 | 1013.7 |
| 20260509062523 | 48 | 248 | 0.0 | 0.0 | 0.00 | 0.00 | 0.00 | 52 | 1013.8 |
| 20260509062023 | 48 | 248 | 0.0 | 0.0 | 0.00 | 0.00 | 0.00 | 52 | 1013.7 |
| 20260509061522 | 49 | 248 | 0.0 | 0.0 | 0.00 | 0.00 | 0.00 | 47 | 1013.6 |
| 20260509061019 | 49 | 248 | 0.0 | 0.0 | 0.00 | 0.00 | 0.00 | 47 | 1013.6 |
| 20260509060519 | 49 | 249 | 0.0 | 0.0 | 0.00 | 0.00 | 0.00 | 49 | 1013.6 |
| 20260509060019 | 49 | 249 | 0.0 | 0.0 | 0.00 | 0.00 | 0.00 | 51 | 1013.7 |
| 20260509055519 | 49 | 249 | 0.0 | 0.0 | 0.00 | 0.00 | 0.00 | 49 | 1013.6 |
| 20260509055019 | 49 | 249 | 0.0 | 0.0 | 0.00 | 0.00 | 0.00 | 50 | 1013.6 |
| 20260509054519 | 50 | 249 | 0.0 | 0.0 | 0.00 | 0.00 | 0.00 | 48 | 1013.6 |
| 20260509054020 | 50 | 249 | 0.0 | 0.0 | 0.00 | 0.00 | 0.00 | 48 | 1013.6 |
| 20260509053520 | 50 | 249 | 0.0 | 0.0 | 0.00 | 0.00 | 0.00 | 50 | 1013.6 |
| 20260509053019 | 51 | 249 | 0.0 | 0.0 | 0.00 | 0.00 | 0.00 | 50 | 1013.5 |
| 20260509052520 | 51 | 249 | 0.0 | 0.0 | 0.00 | 0.00 | 0.00 | 49 | 1013.5 |
| 20260509052020 | 51 | 249 | 0.0 | 0.0 | 0.00 | 0.00 | 0.00 | 50 | 1013.6 |
| 20260509051521 | 51 | 249 | 0.0 | 0.0 | 0.00 | 0.00 | 0.00 | 50 | 1013.5 |
| 20260509051019 | 51 | 249 | 0.0 | 0.0 | 0.00 | 0.00 | 0.00 | 50 | 1013.4 |
| 20260509050519 | 52 | 249 | 0.0 | 0.0 | 0.00 | 0.00 | 0.00 | 49 | 1013.4 |
| 20260509050021 | 52 | 249 | 0.0 | 0.0 | 0.00 | 0.00 | 0.00 | 49 | 1013.3 |
| 20260509045522 | 54 | 249 | 0.0 | 0.0 | 0.00 | 0.00 | 0.00 | 46 | 1013.3 |
| 20260509045121 | 54 | 249 | 0.0 | 0.0 | 0.00 | 0.00 | 0.00 | 44 | 1013.2 |
| 20260509044519 | 55 | 249 | 0.0 | 0.0 | 0.00 | 0.00 | 0.00 | 44 | 1013.2 |
| 20260509044020 | 55 | 249 | 0.0 | 0.0 | 0.00 | 0.00 | 0.00 | 44 | 1013.1 |
| 20260509043518 | 55 | 249 | 0.0 | 0.0 | 0.00 | 0.00 | 0.00 | 43 | 1013.1 |
| 20260509043019 | 56 | 249 | 0.0 | 0.0 | 0.00 | 0.00 | 0.00 | 42 | 1013.1 |
| 20260509042520 | 56 | 249 | 0.0 | 0.0 | 0.00 | 0.00 | 0.00 | 44 | 1013.1 |
| 20260509042019 | 56 | 252 | 0.0 | 0.0 | 0.00 | 0.00 | 0.00 | 46 | 1012.9 |
| 20260509041531 | 56 | 252 | 0.0 | 0.0 | 0.00 | 0.00 | 0.00 | 45 | 1012.9 |
| 20260509041020 | 56 | 253 | 0.0 | 0.0 | 0.00 | 0.00 | 0.00 | 45 | 1012.8 |
| 20260509040521 | 56 | 253 | 0.0 | 0.0 | 0.00 | 0.00 | 0.00 | 44 | 1012.9 |
| 20260509040019 | 57 | 254 | 0.0 | 0.0 | 0.00 | 0.00 | 0.00 | 44 | 1012.8 |
| 20260509035521 | 57 | 256 | 0.0 | 0.0 | 0.00 | 0.00 | 0.00 | 43 | 1012.9 |
| 20260509035019 | 58 | 257 | 0.0 | 0.0 | 0.00 | 0.00 | 0.00 | 41 | 1012.7 |
| 20260509034519 | 58 | 257 | 0.0 | 0.0 | 0.00 | 0.00 | 0.00 | 44 | 1012.8 |
| 20260509034020 | 59 | 257 | 0.0 | 0.0 | 0.00 | 0.00 | 0.00 | 42 | 1012.7 |
| 20260509033520 | 60 | 257 | 0.0 | 0.0 | 0.00 | 0.00 | 0.00 | 42 | 1012.7 |
| 20260509033019 | 61 | 258 | 0.0 | 0.0 | 0.00 | 0.00 | 0.00 | 41 | 1012.6 |
| 20260509032520 | 61 | 257 | 0.0 | 0.0 | 0.00 | 0.00 | 0.00 | 40 | 1012.5 |
| 20260509032019 | 62 | 258 | 0.0 | 0.0 | 0.00 | 0.00 | 0.00 | 40 | 1012.4 |
| 20260509031519 | 62 | 258 | 0.0 | 0.0 | 0.00 | 0.00 | 0.00 | 37 | 1012.3 |
| 20260509031020 | 63 | 258 | 0.0 | 0.0 | 0.00 | 0.00 | 0.00 | 36 | 1012.2 |
| 20260509030520 | 64 | 258 | 0.0 | 0.0 | 0.00 | 0.00 | 0.00 | 34 | 1012.2 |
| 20260509030021 | 65 | 258 | 0.0 | 0.0 | 0.00 | 0.00 | 0.00 | 35 | 1012.1 |
| 20260509025519 | 66 | 274 | 0.0 | 0.0 | 0.00 | 0.00 | 0.00 | 33 | 1012.1 |
| 20260509025019 | 67 | 274 | 0.0 | 0.0 | 0.00 | 0.00 | 0.00 | 29 | 1012.1 |
| 20260509024520 | 68 | 274 | 0.0 | 0.0 | 0.00 | 0.00 | 0.00 | 29 | 1012.1 |
| 20260509024022 | 69 | 274 | 0.0 | 4.0 | 0.00 | 0.00 | 0.00 | 28 | 1011.9 |
| 20260509023520 | 70 | 274 | 0.0 | 5.0 | 0.00 | 0.00 | 0.00 | 27 | 1011.9 |
| 20260509023019 | 70 | 284 | 0.0 | 0.0 | 0.00 | 0.00 | 0.00 | 27 | 1011.9 |
| 20260509022519 | 71 | 282 | 0.0 | 5.0 | 0.00 | 0.00 | 0.00 | 26 | 1011.9 |
| 20260509022022 | 72 | 306 | 0.0 | 5.0 | 0.00 | 0.00 | 0.00 | 25 | 1011.9 |
| 20260509021520 | 72 | 320 | 0.0 | 5.0 | 0.00 | 0.00 | 0.00 | 26 | 1011.8 |
| 20260509021022 | 72 | 303 | 1.0 | 7.0 | 0.00 | 0.00 | 0.00 | 26 | 1011.8 |
| 20260509020520 | 73 | 306 | 1.0 | 6.0 | 0.00 | 0.00 | 0.00 | 25 | 1011.8 |
| 20260509020120 | 73 | 359 | 0.0 | 6.0 | 0.00 | 0.00 | 0.00 | 25 | 1011.8 |
| 20260509015519 | 73 | 309 | 1.0 | 7.0 | 0.00 | 0.00 | 0.00 | 24 | 1011.8 |
| 20260509015019 | 74 | 298 | 0.0 | 6.0 | 0.00 | 0.00 | 0.00 | 24 | 1011.8 |
| 20260509014519 | 74 | 312 | 2.0 | 8.0 | 0.00 | 0.00 | 0.00 | 23 | 1011.8 |
| 20260509014023 | 74 | 282 | 0.0 | 8.0 | 0.00 | 0.00 | 0.00 | 23 | 1011.8 |
| 20260509013520 | 75 | 281 | 0.0 | 9.0 | 0.00 | 0.00 | 0.00 | 22 | 1011.8 |
| 20260509013020 | 75 | 291 | 2.0 | 9.0 | 0.00 | 0.00 | 0.00 | 22 | 1011.8 |
| 20260509012524 | 75 | 343 | 0.0 | 10.0 | 0.00 | 0.00 | 0.00 | 22 | 1011.8 |
| 20260509012019 | 75 | 319 | 4.0 | 10.0 | 0.00 | 0.00 | 0.00 | 21 | 1011.8 |
| 20260509011526 | 76 | 319 | 3.0 | 9.0 | 0.00 | 0.00 | 0.00 | 21 | 1011.9 |
| 20260509011020 | 76 | 320 | 2.0 | 10.0 | 0.00 | 0.00 | 0.00 | 22 | 1011.8 |
| 20260509010519 | 76 | 318 | 3.0 | 10.0 | 0.00 | 0.00 | 0.00 | 22 | 1011.9 |
| 20260509010035 | 76 | 310 | 1.0 | 10.0 | 0.00 | 0.00 | 0.00 | 22 | 1011.9 |
| 20260509005522 | 77 | 335 | 3.0 | 10.0 | 0.00 | 0.00 | 0.00 | 21 | 1012.0 |
| 20260509005024 | 77 | 291 | 1.0 | 10.0 | 0.00 | 0.00 | 0.00 | 22 | 1012.0 |
| 20260509004525 | 77 | 316 | 3.0 | 10.0 | 0.00 | 0.00 | 0.00 | 21 | 1011.9 |
| 20260509004019 | 77 | 280 | 3.0 | 12.0 | 0.00 | 0.00 | 0.00 | 21 | 1012.0 |
| 20260509003521 | 78 | 276 | 4.0 | 12.0 | 0.00 | 0.00 | 0.00 | 21 | 1012.0 |
| 20260509003020 | 78 | 272 | 2.0 | 9.0 | 0.00 | 0.00 | 0.00 | 21 | 1012.1 |
| 20260509002519 | 79 | 289 | 3.0 | 9.0 | 0.00 | 0.00 | 0.00 | 19 | 1012.1 |
| 20260509002020 | 79 | 283 | 4.0 | 10.0 | 0.00 | 0.00 | 0.00 | 19 | 1012.1 |
| 20260509001519 | 79 | 287 | 1.0 | 10.0 | 0.00 | 0.00 | 0.00 | 19 | 1012.2 |
| 20260509001019 | 79 | 266 | 3.0 | 10.0 | 0.00 | 0.00 | 0.00 | 17 | 1012.2 |
| 20260509000519 | 79 | 302 | 2.0 | 10.0 | 0.00 | 0.00 | 0.00 | 18 | 1012.2 |
| 20260509000019 | 79 | 308 | 4.0 | 10.0 | 0.00 | 0.00 | 0.00 | 18 | 1012.1 |
| 20260508235519 | 79 | 330 | 5.0 | 13.0 | 0.00 | 0.00 | 0.00 | 18 | 1012.2 |
| 20260508235020 | 80 | 286 | 3.0 | 10.0 | 0.00 | 0.00 | 0.00 | 17 | 1012.2 |
| 20260508234524 | 80 | 304 | 3.0 | 10.0 | 0.00 | 0.00 | 0.00 | 16 | 1012.2 |
| 20260508234020 | 80 | 305 | 1.0 | 10.0 | 0.00 | 0.00 | 0.00 | 16 | 1012.2 |
| 20260508233523 | 80 | 350 | 3.0 | 11.0 | 0.00 | 0.00 | 0.00 | 16 | 1012.2 |
| 20260508233124 | 80 | 328 | 4.0 | 11.0 | 0.00 | 0.00 | 0.00 | 16 | 1012.2 |
| 20260508232519 | 80 | 329 | 1.0 | 11.0 | 0.00 | 0.00 | 0.00 | 16 | 1012.3 |
| 20260508232147 | 80 | 312 | 2.0 | 11.0 | 0.00 | 0.00 | 0.00 | 13 | 1012.3 |
| 20260508231519 | 81 | 283 | 3.0 | 9.0 | 0.00 | 0.00 | 0.00 | 14 | 1012.4 |
| 20260508231022 | 81 | 269 | 3.0 | 10.0 | 0.00 | 0.00 | 0.00 | 13 | 1012.4 |
| 20260508230520 | 81 | 266 | 2.0 | 10.0 | 0.00 | 0.00 | 0.00 | 14 | 1012.4 |
| 20260508230032 | 81 | 300 | 2.0 | 8.0 | 0.00 | 0.00 | 0.00 | 12 | 1012.5 |
| 20260508225620 | 81 | 285 | 0.0 | 10.0 | 0.00 | 0.00 | 0.00 | 14 | 1012.5 |
| 20260508225019 | 81 | 251 | 3.0 | 10.0 | 0.00 | 0.00 | 0.00 | 13 | 1012.7 |
| 20260508224526 | 81 | 284 | 2.0 | 11.0 | 0.00 | 0.00 | 0.00 | 13 | 1012.7 |
| 20260508224019 | 81 | 288 | 2.0 | 11.0 | 0.00 | 0.00 | 0.00 | 13 | 1012.7 |
| 20260508223519 | 81 | 286 | 3.0 | 10.0 | 0.00 | 0.00 | 0.00 | 12 | 1012.7 |
| 20260508223121 | 81 | 280 | 2.0 | 9.0 | 0.00 | 0.00 | 0.00 | 12 | 1012.8 |
| 20260508222521 | 81 | 289 | 2.0 | 9.0 | 0.00 | 0.00 | 0.00 | 13 | 1012.8 |
| 20260508222019 | 81 | 274 | 2.0 | 9.0 | 0.00 | 0.00 | 0.00 | 12 | 1012.9 |
| 20260508221536 | 81 | 305 | 3.0 | 11.0 | 0.00 | 0.00 | 0.00 | 13 | 1012.9 |
| 20260508221019 | 81 | 309 | 2.0 | 11.0 | 0.00 | 0.00 | 0.00 | 13 | 1013.0 |
| 20260508220520 | 81 | 310 | 3.0 | 10.0 | 0.00 | 0.00 | 0.00 | 12 | 1013.0 |
| 20260508220018 | 81 | 301 | 2.0 | 10.0 | 0.00 | 0.00 | 0.00 | 12 | 1013.2 |
| 20260508215519 | 81 | 314 | 2.0 | 9.0 | 0.00 | 0.00 | 0.00 | 11 | 1013.2 |
| 20260508215021 | 81 | 274 | 2.0 | 12.0 | 0.00 | 0.00 | 0.00 | 10 | 1013.2 |
| 20260508214518 | 82 | 270 | 3.0 | 11.0 | 0.00 | 0.00 | 0.00 | 11 | 1013.3 |
| 20260508214019 | 81 | 288 | 2.0 | 11.0 | 0.00 | 0.00 | 0.00 | 9 | 1013.2 |
| 20260508213619 | 81 | 270 | 2.0 | 9.0 | 0.00 | 0.00 | 0.00 | 10 | 1013.2 |
| 20260508213023 | 81 | 281 | 2.0 | 10.0 | 0.00 | 0.00 | 0.00 | 10 | 1013.2 |
| 20260508212519 | 81 | 294 | 2.0 | 10.0 | 0.00 | 0.00 | 0.00 | 10 | 1013.4 |
| 20260508212020 | 81 | 262 | 2.0 | 11.0 | 0.00 | 0.00 | 0.00 | 10 | 1013.4 |
| 20260508211519 | 81 | 261 | 2.0 | 11.0 | 0.00 | 0.00 | 0.00 | 10 | 1013.3 |
| 20260508211020 | 82 | 289 | 2.0 | 10.0 | 0.00 | 0.00 | 0.00 | 10 | 1013.4 |
| 20260508210519 | 81 | 301 | 1.0 | 12.0 | 0.00 | 0.00 | 0.00 | 9 | 1013.5 |
| 20260508205519 | 81 | 295 | 2.0 | 8.0 | 0.00 | 0.00 | 0.00 | 10 | 1013.6 |
| 20260508205023 | 81 | 343 | 2.0 | 11.0 | 0.00 | 0.00 | 0.00 | 9 | 1013.6 |
| 20260508204618 | 81 | 318 | 1.0 | 11.0 | 0.00 | 0.00 | 0.00 | 10 | 1013.7 |
| 20260508204019 | 80 | 329 | 1.0 | 11.0 | 0.00 | 0.00 | 0.00 | 11 | 1013.8 |
| 20260508203519 | 80 | 334 | 3.0 | 12.0 | 0.00 | 0.00 | 0.00 | 11 | 1013.8 |
| 20260508203019 | 80 | 298 | 2.0 | 12.0 | 0.00 | 0.00 | 0.00 | 10 | 1013.7 |
| 20260508202519 | 80 | 316 | 3.0 | 12.0 | 0.00 | 0.00 | 0.00 | 10 | 1013.8 |
| 20260508202019 | 80 | 256 | 3.0 | 11.0 | 0.00 | 0.00 | 0.00 | 12 | 1013.8 |
| 20260508201520 | 80 | 294 | 1.0 | 12.0 | 0.00 | 0.00 | 0.00 | 12 | 1013.8 |
| 20260508201022 | 80 | 294 | 3.0 | 12.0 | 0.00 | 0.00 | 0.00 | 13 | 1013.8 |
| 20260508200520 | 81 | 283 | 4.0 | 11.0 | 0.00 | 0.00 | 0.00 | 11 | 1013.8 |
| 20260508200019 | 81 | 336 | 2.0 | 11.0 | 0.00 | 0.00 | 0.00 | 12 | 1013.8 |
| 20260508195519 | 82 | 235 | 1.0 | 9.0 | 0.00 | 0.00 | 0.00 | 12 | 1013.7 |
| 20260508195019 | 82 | 294 | 3.0 | 9.0 | 0.00 | 0.00 | 0.00 | 11 | 1013.8 |
| 20260508194519 | 82 | 324 | 2.0 | 9.0 | 0.00 | 0.00 | 0.00 | 10 | 1013.7 |
| 20260508194119 | 82 | 345 | 4.0 | 10.0 | 0.00 | 0.00 | 0.00 | 10 | 1013.7 |
| 20260508193523 | 83 | 328 | 3.0 | 10.0 | 0.00 | 0.00 | 0.00 | 10 | 1013.9 |
| 20260508193019 | 83 | 323 | 1.0 | 8.0 | 0.00 | 0.00 | 0.00 | 11 | 1014.0 |
| 20260508192522 | 82 | 274 | 0.0 | 6.0 | 0.00 | 0.00 | 0.00 | 11 | 1014.0 |
| 20260508192019 | 81 | 53 | 0.0 | 9.0 | 0.00 | 0.00 | 0.00 | 10 | 1014.1 |
| 20260508191520 | 81 | 321 | 4.0 | 10.0 | 0.00 | 0.00 | 0.00 | 8 | 1014.1 |
| 20260508191019 | 82 | 293 | 0.0 | 6.0 | 0.00 | 0.00 | 0.00 | 9 | 1014.1 |
| 20260508190519 | 81 | 320 | 2.0 | 9.0 | 0.00 | 0.00 | 0.00 | 9 | 1014.1 |
| 20260508190019 | 82 | 318 | 3.0 | 8.0 | 0.00 | 0.00 | 0.00 | 10 | 1014.2 |
| 20260508185523 | 81 | 299 | 0.0 | 6.0 | 0.00 | 0.00 | 0.00 | 9 | 1014.4 |
| 20260508185019 | 81 | 341 | 0.0 | 9.0 | 0.00 | 0.00 | 0.00 | 10 | 1014.4 |
| 20260508184520 | 81 | 326 | 4.0 | 10.0 | 0.00 | 0.00 | 0.00 | 8 | 1014.4 |
| 20260508184019 | 81 | 340 | 0.0 | 5.0 | 0.00 | 0.00 | 0.00 | 10 | 1014.5 |
| 20260508183519 | 81 | 47 | 0.0 | 6.0 | 0.00 | 0.00 | 0.00 | 9 | 1014.5 |
| 20260508183020 | 80 | 17 | 1.0 | 6.0 | 0.00 | 0.00 | 0.00 | 10 | 1014.5 |
| 20260508182522 | 80 | 320 | 1.0 | 5.0 | 0.00 | 0.00 | 0.00 | 9 | 1014.6 |
| 20260508182019 | 80 | 323 | 3.0 | 5.0 | 0.00 | 0.00 | 0.00 | 9 | 1014.6 |
| 20260508181019 | 79 | 359 | 0.0 | 7.0 | 0.00 | 0.00 | 0.00 | 11 | 1014.8 |
| 20260508180523 | 79 | 314 | 1.0 | 5.0 | 0.00 | 0.00 | 0.00 | 10 | 1014.8 |
| 20260508180019 | 79 | 317 | 1.0 | 6.0 | 0.00 | 0.00 | 0.00 | 11 | 1014.8 |
| 20260508175519 | 79 | 334 | 1.0 | 6.0 | 0.00 | 0.00 | 0.00 | 10 | 1014.9 |